world map with BLL marked

BLL - Airport

This information may not be accurate or current and is not valid for navigation or flight planning. No warranty of fitness for any purpose is made or implied.

flag of Denmark

Donate via PayPal

Additional information is available on the NEW Great Circle Mapper

Location
City:  Billund, Denmark
ICAO / IATA:EKBI / BLL

Details
Type:Airport (Aerodrome, Airfield)
Latitude:55°44'25"N (55.740322)
Longitude:9°09'06"E (9.151778)
Elevation:247 ft (75 m)
Runways:1
Longest:10171 × 148 ft (3100 × 45 m)

Time
Timezone:UTC+1 (DST+4)
Local Time:

Weather
METAR:EKBI  262120Z AUTO 08004KT 9999NDV BKN092/// OVC110/// 15/12 Q1026
TAF:EKBI  261101Z 2612/2712 07010KT CAVOK PROB40 2710/2712 08015G25KT SHRA BKN030CB

Related Locations
Nearby:
Farthest:CHT: 11569 mi / 18619 km
Waitangi [Tuuta], CIT, NZ

Find:

   beyond  
but within

Other Information
Maps:
Links:
Sources:

  


 


Great Circle Mapper   Great Circle Mapper
Great Circle Mapper FAQ   Great Circle Mapper FAQ
  Karl's Home Page
KLSē   KLSē Home
   GC on Facebook
Airlines of the World   Airlines of the World
Donate via PayPal


Copyright © 2004-2017, Karl L. Swartz. All rights reserved.
All trademarks mentioned herein belong to their respective owners.

Please see credits for attribution and copyright information.

Karl Swartz <karl@kls2.com>
  Powered by FreeBSD
Valid HTML 4.01!
Labeled with ICRA
hCard Microformat
Geo Microformat